Miscellaneous Local Product
Issued by NWS Hastings, NE

Home | Current Version | Previous Version | Text Only | Print | Product List | Glossary Off
Versions: 1 2 3 4 5 6 7 8 9 10 11 12 13 14 15 16 17 18 19 20 21 22 23 24 25 26 27 28 29 30 31 32 33 34 35 36 37 38 39 40 41 42 43 44 45 46 47 48 49 50

000
AXUS43 KGID 230210
MISGRI

GID CWA HOURLY WEATHER ROUNDUP
NATIONAL WEATHER SERVICE HASTINGS NE
900 PM CDT MON SEP 22 2014

NOTE: "FAIR" INDICATES FEW OR NO CLOUDS BELOW 12,000 FEET WITH NO
SIGNIFICANT WEATHER AND/OR OBSTRUCTIONS TO VISIBILITY.

...SOUTH CENTRAL NEBRASKA...

CITY           SKY/WX    TMP DP  RH WIND       PRES   REMARKS
GRAND ISLAND   CLOUDY    66  49  54 SE9       30.16F
HASTINGS       CLOUDY    65  47  52 SE9       30.16S
KEARNEY        CLOUDY    64  48  55 E8        30.15F
ORD            LGT RAIN  60  56  86 SE3       30.13S
YORK           CLOUDY    63  52  67 S5        30.19R
AURORA         CLOUDY    64  48  56 S7        30.17F
LEXINGTON      CLOUDY    62  55  78 SE9       30.15R
HOLDREGE       CLOUDY    64  50  58 CALM      30.15R
HEBRON         MOCLDY    59  50  72 SE5       30.18R

...NEBRASKA PANHANDLE...

CITY           SKY/WX    TMP DP  RH WIND       PRES   REMARKS
CHADRON        CLOUDY    67  54  63 S14       30.00R
ALLIANCE       PTCLDY    60  54  80 SE15      30.04F
SCOTTSBLUFF    MOCLDY    62  59  90 SE8       30.05S
SIDNEY         PTCLDY    62  54  74 SE8       30.07S

...WESTERN AND NORTH CENTRAL NEBRASKA...

CITY           SKY/WX    TMP DP  RH WIND       PRES   REMARKS
VALENTINE      LGT RAIN  60  56  86 S12       30.06S
AINSWORTH      LGT RAIN  58  55  89 S13       30.10S
ONEILL         CLOUDY    67  52  57 S8        30.13R
BROKEN BOW     LGT RAIN  59  56  89 SE10      30.15S
IMPERIAL       CLOUDY    65  52  62 SE20      30.06F
NORTH PLATTE   LGT RAIN  58  55  90 SE16      30.08F
MCCOOK         LGT RAIN  64  53  67 E8        30.10S

...EASTERN NEBRASKA...

CITY           SKY/WX    TMP DP  RH WIND       PRES   REMARKS
NORFOLK        CLOUDY    64  51  62 SE7       30.16R
SO SIOUX CITY  MOCLDY    64  51  62 SE7       30.16S
TEKAMAH        MOCLDY    57  52  83 S5        30.17S
COLUMBUS       CLOUDY    63  50  63 S6        30.18R
ALBION         CLOUDY    64  51  64 S7        30.15S
OMAHA EPPLEY   MOCLDY    63  51  65 S6        30.19R
OFFUTT AFB     PTCLDY    62  56  81 E5        30.19R
MILLARD        PTCLDY    63  52  67 SE3       30.18S
LINCOLN        MOCLDY    64  50  60 S7        30.19R
NEBRASKA CITY    N/A     60  46  59 S5        30.20R
BEATRICE       MOCLDY    64  49  57 SE6       30.18S
FALLS CITY     MOCLDY    63  52  67 S6        30.20R

...NORTHERN KANSAS...

CITY           SKY/WX    TMP DP  RH WIND       PRES   REMARKS
GOODLAND       MOCLDY    67  53  61 SE14      30.09R
HILL CITY      CLOUDY    70  46  42 SE9       30.12S
NORTON         DRIZZLE   68  43  40 SE10      30.12R
PHILLIPSBURG   PTCLDY    70  45  40 SE14      30.13S
SMITH CENTER   CLEAR     66  45  45 SE14      30.15S
BELOIT         CLEAR     66  48  52 E7        30.15S
HAYS           MOCLDY    68  45  42 SE12      30.15R
RUSSELL        PTCLDY    64  48  56 SE12      30.14S
CONCORDIA      PTCLDY    58  52  80 SE7       30.18R
SALINA         PTCLDY    66  50  56 SE9       30.18S
TOPEKA         PTCLDY    63  53  70 SE5       30.22R



USA.gov is the U.S. government's official web portal to all federal, state and local government web resources and services.